Weather History for Detroit Lakes, MN

Change the Weather History Date:

Thursday, March 7, 2013

  Actual Average Record
Temperature  
Mean Temperature 20 °F -  
Max Temperature 30 °F 31 °F 67 °F (1987)
Min Temperature 10 °F 5 °F -31 °F (1955)
Degree Days  
Heating Degree Days 45    
Moisture  
Dew Point 16 °F    
Average Humidity 82    
Maximum Humidity 100    
Minimum Humidity 60    
Precipitation  
Precipitation 0.00 in - - ()
Sea Level Pressure  
Sea Level Pressure 30.23 in    
Wind  
Wind Speed 10 mph (SE)    
Max Wind Speed 22 mph    
Max Gust Speed 28 mph    
Visibility 9 miles    
Events      
Averages and records for this station are not official NWS values.
T = Trace of Precipitation, MM = Missing Value Source: NWS Daily Summary

Daily Weather History Graph

Daily Weather History Graph

Search for Another Location

Airport:

Trip Planner

Search our weather history database for the weather conditions in past years. The results will help you decide how hot, cold, wet, or windy it might be!

Date:

Astronomy

Mar. 07, 2013 Rise Set
Actual Time 6:51 AM CST 6:18 PM CST
Civil Twilight 6:21 AM CST 6:48 PM CST
Nautical Twilight 5:46 AM CST 7:23 PM CST
Astronomical Twilight 5:10 AM CST 7:59 PM CST
Moon 4:05 AM CST (3/7) 1:54 PM CST (3/7)
Length of Visible Light 12h 27m
Length of Day
11h 26m
Waning Crescent, 20% of the Moon is Illuminated
Mar 7
Waning Crescent
Mar 11
New
Mar 19
First Quarter
Mar 27
Full
Apr 2
Last Quarter

Hourly Weather History & Observations

Time (CST) Temp. Windchill Dew Point Humidity Pressure Visibility Wind Dir Wind Speed Gust Speed Precip Events Conditions
12:15 AM 12.2 °F 1.7 °F 12.2 °F 100% 30.28 in 10.0 mi SE 6.9 mph - N/A   Clear
12:36 AM 14.0 °F 6.5 °F 12.2 °F 93% 30.29 in 10.0 mi SE 4.6 mph - N/A   Clear
12:55 AM 12.2 °F 2.9 °F 12.2 °F 100% 30.29 in 10.0 mi SE 5.8 mph - N/A   Clear
1:15 AM 10.4 °F 0.8 °F 10.4 °F 100% 30.29 in 10.0 mi SSE 5.8 mph - N/A   Clear
1:36 AM 12.2 °F 4.3 °F 10.4 °F 92% 30.30 in 10.0 mi SE 4.6 mph - N/A   Clear
1:55 AM 12.2 °F 2.9 °F 10.4 °F 92% 30.30 in 10.0 mi ESE 5.8 mph - N/A   Clear
2:15 AM 14.0 °F 5.1 °F 12.2 °F 93% 30.30 in 10.0 mi ESE 5.8 mph - N/A   Clear
2:36 AM 12.2 °F 4.3 °F 10.4 °F 92% 30.30 in 10.0 mi SE 4.6 mph - N/A   Clear
2:55 AM 12.2 °F 2.9 °F 12.2 °F 100% 30.29 in 10.0 mi SE 5.8 mph - N/A   Clear
3:16 AM 12.2 °F 2.9 °F 10.4 °F 92% 30.28 in 10.0 mi SE 5.8 mph - N/A   Clear
3:35 AM 12.2 °F 2.9 °F 12.2 °F 100% 30.28 in 10.0 mi SE 5.8 mph - N/A   Clear
3:56 AM 12.2 °F 2.9 °F 12.2 °F 100% 30.27 in 10.0 mi SE 5.8 mph - N/A   Clear
4:15 AM 12.2 °F 1.7 °F 10.4 °F 92% 30.27 in 10.0 mi SE 6.9 mph - N/A   Clear
4:36 AM 12.2 °F 0.7 °F 12.2 °F 100% 30.27 in 10.0 mi SE 8.1 mph - N/A   Clear
4:55 AM 12.2 °F 1.7 °F 10.4 °F 92% 30.26 in 10.0 mi SE 6.9 mph - N/A   Clear
5:15 AM 12.2 °F -0.2 °F 10.4 °F 92% 30.26 in 10.0 mi SE 9.2 mph - N/A   Clear
5:36 AM 12.2 °F 0.7 °F 12.2 °F 100% 30.26 in 10.0 mi SE 8.1 mph - N/A   Clear
5:55 AM 14.0 °F 2.9 °F 12.2 °F 93% 30.25 in 10.0 mi ESE 8.1 mph - N/A   Clear
6:15 AM 15.8 °F 3.4 °F 14.0 °F 93% 30.25 in 10.0 mi SE 10.4 mph - N/A   Clear
6:36 AM 15.8 °F 4.2 °F 14.0 °F 93% 30.25 in 10.0 mi SE 9.2 mph - N/A   Clear
6:55 AM 14.0 °F 2.0 °F 14.0 °F 100% 30.26 in 10.0 mi SE 9.2 mph - N/A   Clear
7:15 AM 14.0 °F 1.2 °F 12.2 °F 93% 30.26 in 10.0 mi SSE 10.4 mph - N/A   Clear
7:36 AM 14.0 °F 1.2 °F 12.2 °F 93% 30.26 in 10.0 mi SE 10.4 mph - N/A   Clear
7:55 AM 15.8 °F 3.4 °F 14.0 °F 93% 30.26 in 10.0 mi SSE 10.4 mph 16.1 mph N/A   Clear
8:15 AM 15.8 °F 2.1 °F 14.0 °F 93% 30.26 in 10.0 mi SE 12.7 mph - N/A   Clear
8:35 AM 17.6 °F 4.3 °F 14.0 °F 86% 30.27 in 10.0 mi SE 12.7 mph - N/A   Clear
8:55 AM 17.6 °F 2.2 °F 14.0 °F 86% 30.26 in 10.0 mi SE 17.3 mph - N/A   Clear
9:16 AM 17.6 °F 2.7 °F 15.8 °F 93% 30.26 in 7.0 mi SE 16.1 mph 24.2 mph N/A   Clear
9:35 AM 19.4 °F 4.5 °F 15.8 °F 86% 30.26 in 2.0 mi SE 17.3 mph - N/A   Clear
9:55 AM 21.2 °F 6.4 °F 15.8 °F 80% 30.26 in 1.8 mi SE 18.4 mph - N/A   Haze
10:16 AM 21.2 °F 6.4 °F 15.8 °F 80% 30.26 in 2.5 mi SE 18.4 mph - N/A   Haze
10:35 AM 23.0 °F 9.6 °F 17.6 °F 80% 30.24 in 7.0 mi SE 16.1 mph - N/A   Clear
10:55 AM 23.0 °F 8.0 °F 17.6 °F 80% 30.24 in 7.0 mi SSE 20.7 mph 24.2 mph N/A   Clear
11:16 AM 23.0 °F 8.3 °F 17.6 °F 80% 30.24 in 4.0 mi SE 19.6 mph 24.2 mph N/A   Haze
11:35 AM 23.0 °F 8.3 °F 17.6 °F 80% 30.24 in 10.0 mi SE 19.6 mph - N/A   Clear
11:55 AM 24.8 °F 11.1 °F 17.6 °F 74% 30.24 in 10.0 mi SE 18.4 mph 24.2 mph N/A   Clear
12:16 PM 26.6 °F 13.1 °F 19.4 °F 74% 30.23 in 10.0 mi SE 19.6 mph - N/A   Clear
12:35 PM 26.6 °F 14.3 °F 19.4 °F 74% 30.23 in 10.0 mi SE 16.1 mph - N/A   Clear
12:56 PM 26.6 °F 13.4 °F 19.4 °F 74% 30.22 in 10.0 mi SSE 18.4 mph - N/A   Clear
1:16 PM 26.6 °F 14.3 °F 19.4 °F 74% 30.22 in 10.0 mi SE 16.1 mph - N/A   Clear
1:35 PM 28.4 °F 16.2 °F 19.4 °F 69% 30.21 in 10.0 mi SE 17.3 mph - N/A   Clear
1:56 PM 28.4 °F 15.1 °F 17.6 °F 64% 30.20 in 10.0 mi SE 20.7 mph - N/A   Clear
2:16 PM 28.4 °F 15.4 °F 19.4 °F 69% 30.20 in 10.0 mi SE 19.6 mph 25.3 mph N/A   Clear
2:35 PM 28.4 °F 17.0 °F 19.4 °F 69% 30.19 in 10.0 mi SE 15.0 mph 26.5 mph N/A   Clear
2:56 PM 28.4 °F 15.1 °F 19.4 °F 69% 30.19 in 10.0 mi SE 20.7 mph 24.2 mph N/A   Clear
3:16 PM 28.4 °F 14.7 °F 19.4 °F 69% 30.18 in 10.0 mi SE 21.9 mph 26.5 mph N/A   Clear
3:35 PM 30.2 °F 18.1 °F 19.4 °F 64% 30.18 in 10.0 mi SE 18.4 mph 27.6 mph N/A   Clear
3:56 PM 30.2 °F 18.5 °F 19.4 °F 64% 30.18 in 10.0 mi SE 17.3 mph 25.3 mph N/A   Clear
4:15 PM 30.2 °F 17.4 °F 19.4 °F 64% 30.17 in 10.0 mi SE 20.7 mph 25.3 mph N/A   Clear
4:35 PM 30.2 °F 18.1 °F 17.6 °F 60% 30.17 in 10.0 mi SE 18.4 mph 25.3 mph N/A   Clear
4:56 PM 28.4 °F 16.6 °F 17.6 °F 64% 30.17 in 10.0 mi SE 16.1 mph 23.0 mph N/A   Clear
5:15 PM 28.4 °F 16.2 °F 17.6 °F 64% 30.17 in 10.0 mi SE 17.3 mph 24.2 mph N/A   Clear
5:35 PM 28.4 °F 16.6 °F 17.6 °F 64% 30.17 in 10.0 mi SE 16.1 mph 23.0 mph N/A   Clear
5:56 PM 28.4 °F 15.8 °F 17.6 °F 64% 30.16 in 10.0 mi SE 18.4 mph 24.2 mph N/A   Clear
7:35 PM 26.6 °F 16.8 °F 17.6 °F 69% 30.20 in 10.0 mi SSE 10.4 mph - N/A   Clear
7:56 PM 26.6 °F 16.8 °F 17.6 °F 69% 30.19 in 10.0 mi SE 10.4 mph 16.1 mph N/A   Clear
8:15 PM 26.6 °F 18.2 °F 17.6 °F 69% 30.20 in 10.0 mi SE 8.1 mph - N/A   Clear
8:35 PM 24.8 °F 16.1 °F 17.6 °F 74% 30.20 in 10.0 mi SE 8.1 mph - N/A   Clear
8:56 PM 23.0 °F 13.1 °F 17.6 °F 80% 30.20 in 10.0 mi SE 9.2 mph - N/A   Clear
9:15 PM 23.0 °F 12.4 °F 17.6 °F 80% 30.19 in 10.0 mi SE 10.4 mph - N/A   Clear
9:35 PM 23.0 °F 12.4 °F 17.6 °F 80% 30.19 in 10.0 mi SSE 10.4 mph - N/A   Clear
9:56 PM 23.0 °F 13.9 °F 17.6 °F 80% 30.19 in 10.0 mi SE 8.1 mph - N/A   Clear
10:15 PM 23.0 °F 14.7 °F 17.6 °F 80% 30.20 in 10.0 mi SSE 6.9 mph - N/A   Scattered Clouds
10:35 PM 23.0 °F 12.4 °F 17.6 °F 80% 30.20 in 10.0 mi SSE 10.4 mph - N/A   Overcast
10:56 PM 24.8 °F 15.3 °F 19.4 °F 80% 30.20 in 10.0 mi SSE 9.2 mph - N/A   Overcast
11:15 PM 24.8 °F 14.6 °F 19.4 °F 80% 30.21 in 10.0 mi South 10.4 mph - N/A   Overcast
11:35 PM 24.8 °F 13.4 °F 19.4 °F 80% 30.20 in 10.0 mi South 12.7 mph - N/A   Overcast